Presure
210 195 190 187 189 175 172 187 190 194 180 175 204 174 180 231 203 207 201 196 190 206 197 210 189 205 194 196 215 211 168 194 193 194 200 208 206 192 196 206 215 212 210
209 198 197 194 185 191 191 171 198 196 182 195 177 181 174 203 172 200 199 195 196 192 192 191 194 194 197 194 192 202 212 204 200 195 200 203 206 213 204 208 206 203 211
218 197 183 209 182 191 194 199 181 181 193 187 192 194 192 169 211 211 190 202 199 215 214 246 214 207 209 203 198 199 197 209 204 222 201 207 204 206 217 205 204 204 196
184 206 197 180 185 202 185 201 188 187 191 190 186 200 196 169 202 169 172 193 213 218 211 206 215 210 197 178 188 201 205 217 221 221 221 232 209 218 212 204 220 204 208
185 202 192 191 186 177 192 211 203 187 192 199 184 218 205 183 176 204 174 193 200 216 190 202 202 189 200 198 204 207 214 214 215 201 244 238 234 247 222 218 226 222 210
192 201 187 190 184 185 182 186 203 201 194 187 204 198 213 190 181 199 178 208 180 204 200 180 200 217 198 217 197 210 208 218 221 220 218 236 230 238 245 256 248 220 217
195 196 196 192 186 182 198 193 199 195 215 196 193 188 214 187 203 211 183 197 172 175 170 199 180 170 206 205 209 208 106 187 215 198 205 207 210 223 242 252 243 242 220
215 205 206 198 198 187 201 190 194 195 196 183 181 198 200 200 208 170 182 199 179 183 193 215 198 192 174 176 188 213 202 192 205 187 209 212 214 209 214 231 237 229 228
254 235 210 207 194 186 193 199 192 192 193 196 196 194 193 193 199 223 202 192 212 177 196 196 199 200 174 182 207 184 191 184 205 205 196 203 179 197 211 206 217 221 224
248 257 274 218 213 205 200 200 200 195 194 207 193 189 192 188 189 193 203 205 193 204 179 187 213 199 184 184 182 174 177 177 189 184 203 185 201 195 186 195 218 204 202
277 278 289 269 234 199 211 209 205 192 194 204 211 194 203 200 194 184 206 202 201 238 183 186 208 178 200 193 189 193 178 170 193 192 175 183 195 191 194 199 213 209 201
273 283 276 283 288 297 215 234 211 218 215 214 206 193 195 203 207 205 206 202 198 203 185 184 181 190 185 188 186 197 195 164 212 163 172 187 168 179 165 191 197 192 212
282 272 282 276 279 288 221 283 277 265 224 222 220 213 210 211 213 215 212 201 203 209 196 195 204 192 188 194 198 198 184 197 174 161 197 195 165 190 177 195 184 175 194
288 302 284 255 275 283 292 295 291 305 271 301 291 299 245 217 232 217 221 210 227 203 201 202 192 196 186 179 189 201 167 184 187 192 187 174 194 179 194 188 181 201 194
290 323 300 284 283 280 287 234 295 297 297 313 308 304 304 244 320 265 241 227 222 203 203 197 196 192 193 188 199 167 200 196 170 192 190 197 196 185 184 183 205 205 208
333 333 317 310 271 287 290 285 287 294 301 314 310 310 317 150 340 354 372 262 242 231 220 204 203 201 201 188 196 176 194 181 202 200 195 181 185 198 202 189 193 206 206
324 322 319 305 299 299 300 245 298 304 309 318 323 320 368 369 366 359 353 355 375 306 240 226 219 204 194 207 200 198 187 183 186 200 196 181 180 187 185 195 178 183 206
318 309 303 308 312 302 297 300 309 314 355 368 344 398 383 382 370 382 390 389 354 363 378 429 224 225 210 201 201 195 195 196 186 199 202 206 191 193 184 193 201 162 166
301 300 305 296 300 313 314 350 358 371 387 362 354 376 472 472 402 489 449 368 376 383 362 358 417 246 228 215 203 203 197 196 205 190 200 201 194 190 184 190 191 196 180
303 302 309 304 323 350 362 388 364 347 466 499 483 476 382 467 282 374 311 492 416 371 382 363 421 337 261 227 220 213 211 211 199 202 203 212 207 188 204 217 196 185 189
310 303 312 348 352 389 343 350 492 476 460 433 422 413 414 417 425 454 471 480 484 423 366 380 344 413 298 263 232 138 206 212 192 203 205 203 198 201 180 196 207 203 197
295 348 346 393 346 343 526 462 446 405 395 393 379 373 370 375 383 397 428 457 495 486 377 369 387 394 396 296 253 236 223 217 221 205 212 206 206 184 202 192 192 163 178
349 340 377 332 514 461 446 405 378 389 372 364 358 351 351 356 365 375 385 409 456 499 498 379 363 364 403 380 270 253 240 222 218 190 210 207 208 206 207 180 206 206 200
360 342 365 485 455 414 383 375 351 351 349 348 350 349 353 360 366 367 367 379 418 493 509 497 376 395 367 380 337 269 247 234 225 221 221 216 215 205 216 211 204 199 198
323 451 469 451 406 380 366 352 335 336 332 327 338 332 338 348 345 356 372 362 388 465 518 510 469 360 416 372 374 284 261 243 232 226 221 217 215 216 209 213 203 204 216
431 470 440 403 378 366 348 335 332 331 328 330 336 344 350 347 350 353 361 369 370 396 528 504 488 382 367 355 373 357 268 252 241 226 225 212 209 220 212 218 204 208 197
Wind_Speed
63 63 68 68 69 68 73 62 73 70 75 71 67 68 71 50 65 62 59 68 70 65 67 60 72 59 67 66 53 62 81 75 76 75 73 72 70 79 75 68 63 65 68
66 65 70 73 73 76 71 76 80 77 77 73 70 72 67 61 67 65 65 77 69 72 71 73 73 71 69 69 74 68 67 73 78 82 79 74 71 71 77 72 70 74 66
66 66 68 79 75 80 77 85 80 85 76 82 76 74 71 64 59 64 66 75 74 66 75 62 67 66 67 69 71 75 77 75 78 77 82 79 79 75 73 76 78 74 82
64 74 75 74 80 87 79 88 87 89 91 88 76 79 77 69 69 67 64 69 66 74 71 62 63 68 77 80 83 77 75 73 71 73 72 73 82 80 77 77 75 78 76
69 76 75 85 86 78 82 94 98 88 89 94 77 80 83 76 71 73 71 71 74 70 69 68 70 77 74 78 76 69 66 69 71 76 64 66 68 65 76 78 75 79 79
78 80 78 83 86 90 86 88 97 101 96 88 97 92 89 82 74 82 74 80 74 77 74 59 64 73 74 73 76 73 67 68 62 62 60 58 63 60 61 63 67 78 78
83 87 88 88 91 90 104 103 106 108 107 108 101 96 104 77 90 88 81 81 74 73 68 78 61 67 71 76 76 71 52 60 65 64 62 62 61 57 52 59 60 67 77
90 93 98 98 96 96 105 103 104 108 110 92 87 107 106 103 99 74 84 86 80 86 85 89 81 65 68 68 68 71 71 67 69 57 63 62 62 64 57 51 58 64 69
79 97 104 104 97 91 103 113 107 108 111 113 112 108 102 101 102 100 95 91 97 83 92 88 90 78 71 74 77 68 64 58 67 71 63 59 52 55 58 57 54 54 56
67 64 89 98 116 115 114 116 122 118 112 122 111 100 105 92 94 93 110 103 92 99 89 92 95 88 76 80 73 67 65 57 61 56 71 60 64 61 54 56 61 58 59
68 73 77 82 108 100 120 127 129 106 113 131 136 108 129 123 115 83 122 114 104 107 98 94 99 81 97 89 84 80 69 64 68 64 58 62 65 62 59 62 64 64 62
69 75 78 82 84 88 113 127 119 141 140 142 133 99 104 124 135 129 132 126 110 108 101 100 94 102 94 94 81 87 87 67 86 67 62 69 61 61 57 60 57 53 64
72 76 83 82 86 89 73 97 97 120 140 151 147 138 130 134 142 144 142 128 126 129 112 111 114 111 102 113 109 102 87 89 73 72 79 71 65 68 67 67 60 59 58
75 79 84 79 87 91 95 97 98 102 114 106 114 112 158 132 155 141 143 129 142 128 115 122 114 119 108 93 106 118 75 82 84 87 75 65 77 70 73 69 65 69 67
77 78 82 90 94 93 96 78 97 100 101 107 108 110 113 157 114 156 159 151 144 125 127 124 119 116 121 111 121 73 117 103 71 90 84 92 84 76 68 64 76 74 74
75 75 82 89 84 92 98 98 100 104 106 108 108 110 112 49 108 105 102 150 158 151 152 139 142 138 135 114 122 79 116 74 112 104 95 67 74 94 89 76 78 81 78
75 76 79 83 89 92 96 86 104 104 106 107 108 98 105 103 101 100 102 100 96 128 154 154 155 142 131 144 138 130 101 67 105 105 94 67 67 79 73 91 76 76 86
72 74 77 81 86 90 92 95 99 101 103 100 91 95 92 93 89 90 90 90 100 98 95 90 144 152 148 138 137 124 120 124 75 112 113 115 96 103 75 92 102 80 81
73 77 79 82 85 89 90 94 95 92 90 90 92 88 65 63 58 59 73 96 92 93 98 100 91 155 155 154 142 137 121 116 133 90 115 116 102 89 77 87 92 99 71
78 80 83 82 86 89 89 86 86 86 61 46 43 42 42 45 49 51 53 62 91 96 93 97 91 129 157 149 157 151 146 147 120 124 125 135 124 86 119 105 105 76 84
79 80 84 87 86 82 81 85 47 40 27 26 27 29 31 33 32 33 46 55 62 91 98 93 104 95 146 153 154 64 135 148 96 133 138 120 109 120 70 107 113 106 107
78 87 85 81 77 79 42 36 25 31 29 21 22 26 31 34 36 35 33 37 53 65 97 97 94 97 102 146 154 152 148 148 153 116 140 139 134 97 122 100 96 86 74
84 82 79 76 41 31 26 24 30 16 15 20 24 31 36 38 37 37 35 34 41 54 68 98 97 101 98 108 146 153 153 150 149 117 143 141 140 139 137 98 123 118 109
79 74 71 35 25 20 19 12 19 17 21 22 25 29 31 33 39 39 36 34 34 48 60 73 99 93 101 105 130 153 153 153 150 151 150 145 143 120 137 130 115 104 103
72 47 33 20 17 14 9 14 21 22 26 32 30 34 38 36 39 37 37 36 32 33 55 64 80 96 97 103 107 147 152 152 149 151 145 142 142 141 130 131 117 109 121
49 30 21 15 11 11 12 19 25 29 32 36 39 33 31 33 36 37 36 36 34 32 46 59 69 98 96 102 105 115 148 150 150 149 144 134 134 146 131 124 118 128 111
Wind_Direction
225 231 238 239 237 250 254 236 240 242 253 251 252 250 252 241 243 240 244 249 241 242 243 243 243 239 240 244 244 244 253 244 244 244 245 242 241 246 244 246 248 248 249
227 231 234 234 241 241 236 259 241 239 251 246 252 251 256 245 260 244 241 245 248 244 243 245 245 244 243 242 244 241 244 243 243 246 248 246 246 241 244 244 243 248 247
232 236 248 224 247 240 233 234 253 256 249 253 249 248 245 256 236 239 247 243 248 250 248 243 237 238 239 241 243 242 244 246 245 251 249 247 250 246 244 245 246 246 252
252 231 236 254 250 233 251 234 249 254 255 258 256 245 246 258 244 255 260 249 245 248 254 237 235 235 242 255 249 244 249 253 253 252 251 251 249 249 249 251 246 248 246
258 238 241 241 250 266 248 232 236 259 255 250 264 248 245 259 258 244 263 253 243 244 246 246 240 249 244 244 242 246 250 252 253 254 251 249 249 252 252 251 248 244 249
253 245 252 245 256 257 263 258 238 244 254 261 250 259 242 258 257 253 260 241 259 244 251 246 250 240 248 243 253 256 258 249 248 249 253 246 250 252 250 249 244 245 246
248 248 249 249 253 261 246 253 249 253 240 256 260 261 249 257 256 247 259 249 260 261 256 255 241 252 244 251 246 249 253 267 253 258 254 256 258 256 253 248 247 242 243
246 246 243 250 247 257 246 257 252 254 256 265 266 260 259 261 257 256 257 252 257 262 257 246 256 250 253 256 253 247 253 262 257 266 259 258 255 260 258 251 247 243 245
252 246 243 244 253 262 255 251 258 256 258 259 261 261 262 264 262 243 249 256 246 261 253 254 256 254 254 258 248 256 255 258 259 259 266 259 263 266 264 264 255 251 252
273 268 255 248 243 246 252 252 252 255 258 249 262 265 265 265 264 259 257 253 252 248 260 263 249 252 258 257 251 251 251 253 258 258 257 265 265 267 267 266 259 262 261
271 270 267 255 247 254 248 248 250 260 262 254 250 263 257 259 263 261 257 258 254 243 258 261 250 259 261 263 259 252 251 249 256 257 250 259 262 266 265 265 264 264 265
277 266 266 265 264 263 249 247 251 248 250 251 255 260 263 258 255 256 256 260 259 255 255 258 260 262 263 265 260 257 261 240 260 242 250 255 250 254 249 261 260 262 264
278 272 265 263 263 262 261 262 259 253 249 248 250 254 257 256 253 252 254 258 259 256 258 256 247 258 259 263 262 265 259 253 247 240 263 257 246 256 255 260 255 255 258
282 279 266 265 264 262 260 260 260 260 255 258 256 258 250 257 251 254 253 254 246 256 258 256 258 258 259 259 264 266 235 259 260 261 256 248 261 251 260 257 258 261 260
286 282 273 266 264 265 263 263 261 260 260 260 258 257 257 253 259 249 250 252 250 256 258 258 257 257 255 257 258 233 265 265 230 262 262 265 266 254 263 259 266 265 262
289 280 272 268 268 267 265 266 266 264 263 262 261 261 261 246 262 263 261 249 249 248 248 253 253 253 252 257 254 251 262 245 264 261 262 254 261 270 271 256 270 267 265
288 282 277 272 269 268 267 265 266 267 267 267 266 267 268 266 263 260 257 253 249 246 248 244 244 246 253 250 254 255 256 245 258 263 261 247 254 262 260 270 253 268 270
288 284 279 276 272 271 273 274 273 273 275 276 274 275 272 268 263 259 256 252 248 242 236 231 244 241 242 250 252 254 256 256 249 262 264 261 264 265 262 270 269 241 248
289 287 284 284 281 279 281 283 283 282 282 279 276 273 270 267 263 261 254 248 245 241 236 230 226 237 239 242 248 251 254 255 256 256 262 262 262 263 262 265 268 270 262
293 290 288 288 291 293 291 290 286 284 282 278 276 273 268 269 260 262 256 250 241 240 236 229 225 224 231 239 241 246 251 252 255 257 259 260 262 258 265 260 270 265 257
295 296 297 299 297 296 292 290 284 282 279 276 272 271 271 273 277 267 259 252 246 235 236 230 226 222 225 229 239 242 247 250 250 254 255 258 262 265 244 266 265 264 269
302 304 302 301 299 296 290 283 278 283 288 283 286 282 281 277 275 276 278 271 253 242 231 232 223 222 219 223 230 236 241 244 247 255 255 258 260 246 263 262 263 241 250
308 306 305 302 296 289 282 278 289 296 283 276 276 272 272 274 276 275 273 279 274 252 239 229 227 222 218 217 224 229 233 239 244 249 250 254 256 259 260 250 264 265 268
310 307 307 295 291 279 291 308 302 301 293 289 282 282 282 282 280 274 268 270 288 257 242 234 227 223 220 218 220 223 228 234 238 245 247 250 253 254 258 259 262 267 270
311 303 296 285 291 286 285 296 295 299 290 283 289 284 286 280 275 281 273 265 272 276 241 231 227 224 222 219 218 223 224 230 234 241 246 247 251 253 256 258 263 265 265
308 295 289 287 274 285 321 322 312 306 302 298 296 292 286 274 270 280 278 270 262 271 238 227 226 222 221 219 217 219 223 227 231 237 240 245 248 251 255 256 262 263 268